Regional Weather Roundup
Issued by NWS Nashville, TN

Home | Current Version | Previous Version | Text Only | Print | Product List | Glossary On
Versions: 1 2 3 4 5 6 7 8 9 10 11 12 13 14 15 16 17 18 19 20 21 22 23 24 25 26 27 28 29 30 31 32 33 34 35 36 37 38 39 40 41 42 43 44 45 46 47 48 49 50
000
ASUS44 KOHX 310310
RWROHX
MIDDLE TENNESSEE HOURLY WEATHER ROUNDUP
NATIONAL WEATHER SERVICE NASHVILLE TN
1000 PM CDT THU JUL 30 2015

NOTE: "FAIR" INDICATES FEW OR NO CLOUDS BELOW 12,000 FEET WITH
NO SIGNIFICANT WEATHER AND/OR OBSTRUCTIONS TO VISIBILITY.

* THESE REPORTS ARE NOT UNDER NWS QUALITY CONTROL AND MAY NOT
  REPORT WEATHER SUCH AS PRECIPITATION AND FOG.


TNZ005>011-023>034-057-059-062>066-078-080-310400
...NORTHERN MIDDLE TENNESSEE...

CITY           SKY/WX    TMP DP  RH WIND       PRES   REMARKS
CLARKSVILLE    CLEAR     70  64  81 CALM      30.10R
CROSSVILLE     CLEAR     72  60  66 N5        30.13R
DICKSON        CLEAR     70  63  78 CALM      30.11R
LIVINGSTON     CLEAR     74  61  63 N3        30.12
NASHVILLE      CLEAR     77  62  59 N6        30.10R
SMYRNA         CLEAR     75  64  68 N7        30.10R
$$
TNZ056-058-060-061-075>077-079-093>097-310400
...SOUTHERN MIDDLE TENNESSEE...

CITY           SKY/WX    TMP DP  RH WIND       PRES   REMARKS
COLUMBIA       CLEAR     73  63  68 CALM      30.08R
LEWISBURG      CLEAR     72  62  70 N5        30.08R
MCMINNVILLE    CLEAR     72  64  78 N5        30.10R
SHELBYVILLE    CLEAR     72  64  78 CALM      30.10R
TULLAHOMA      CLEAR     72  61  68 N6        30.10R
WINCHESTER     CLEAR     73  63  68 CALM      30.09R
$$


...KEY TO REMARKS...
VSB - VISIBILITY IN MILES
WCI - WIND CHILL INDEX
HX  - HEAT INDEX



USA.gov is the U.S. government's official web portal to all federal, state and local government web resources and services.